[Iaude] MPEC S160: 2019 SX6 [a=1.79,e=0.45,i=1.3,H=26.0]

mpec at marsden.cfa.harvard.edu mpec at marsden.cfa.harvard.edu
Sun Sep 29 19:03:12 EDT 2019


M.P.E.C. 2019-S160                           Issued 2019 September 29, 23:01 UT

     The Minor Planet Electronic Circulars contain information on unusual
         minor planets and routine data on comets.  They are published
    on behalf of Division F of the International Astronomical Union by the
          Minor Planet Center, Smithsonian Astrophysical Observatory,
                          Cambridge, MA 02138, U.S.A.

             Prepared using the Tamkin Foundation Computer Network

                              MPC at CFA.HARVARD.EDU
            URL https://www.minorplanetcenter.net/    ISSN 1523-6714

                                    2019 SX6                                    


Observations:
     K19S06X* C2019 09 24.34520922 17 53.049-28 52 27.66         19.2 GVES160F51
     K19S06X  C2019 09 24.35781722 18 18.929-28 48 38.68               VES160F51
     K19S06X  C2019 09 24.36988822 18 43.797-28 44 57.94         19.5 GVES160F51
     K19S06X  C2019 09 24.38227022 19 09.108-28 41 11.61         19.2 GVES160F51
     K19S06X  C2019 09 29.42119 00 14 38.094-07 23 22.03         20.0 wUES160F51
     K19S06X  C2019 09 29.43230 00 14 45.908-07 21 25.17         19.9 wUES160F51
     K19S06X  C2019 09 29.45451 00 15 01.497-07 17 31.94         20.0 wUES160F51
     K19S06X KC2019 09 29.85873100 20 15.03 -06 10 31.0          19.8 GVES160L01
     K19S06X KC2019 09 29.85965900 20 15.67 -06 10 22.3          19.5 GVES160L01
     K19S06X pC2019 09 29.86179700 20 17.15 -06 10 00.9          20.1 GVES160L01

Observer details:
F51 Pan-STARRS 1, Haleakala.  Observers J. Bulger, K. Chambers, T. Lowe, E. 
   Magnier, A. Schultz, M. Willman.  Measurers S. Chastel, M. Huber, Y. 
   Ramanjooloo, R. Wainscoat, R. Weryk, K. Chambers, T. de Boer, L. Denneau, J. 
   Fairlamb, H. Flewelling, C.-C. Lin, E. Magnier.  1.8-m Ritchey-Chretien + 
   CCD.
L01 Visnjan Observatory, Tican.  Observer K. Korlevic.  1.0-m f/2.9 reflector + 
   CCD.

Orbital elements:
2019 SX6                                                 Earth MOID = 0.0108 AU
Epoch 2019 Apr. 27.0 TT = JDT 2458600.5                 Bell
M 308.06439              (2000.0)            P               Q
n   0.41045277     Peri.  312.58750     +0.88122142     +0.47264019
a   1.7931939      Node    19.21070     -0.42650811     +0.80206436
e   0.4494260      Incl.    1.34950     -0.20381275     +0.36510823
P   2.40           H   26.0           G   0.15           U   7
Residuals in seconds of arc
190924 F51  0.2+  0.0     190929 F51  0.1-  0.1-    190929 L01  0.1-  0.3-
190924 F51  0.6-  0.1-    190929 F51  0.0   0.0     190929 L01  0.4+  0.3+
190924 F51  0.6+  0.3+    190929 F51  0.1+  0.1+
190924 F51  0.2-  0.2-    190929 L01  0.3-  0.0

Ephemeris:
2019 SX6                 a,e,i = 1.79, 0.45, 1                   q = 0.9873
Date    TT    R. A. (2000) Decl.     Delta      r    Elong.  Phase     V
2019 08 30    15 03 56.9 -26 51 40   0.1107  0.9875    75.2    98.6    24.8
...
2019 09 14    16 29 04.5 -36 28 08   0.04879 0.9996    80.9    96.3    22.9
...
2019 09 22    20 36 25.3 -38 46 22   0.02680 1.0180   120.9    57.8    20.3
...
2019 09 28    23 53 03.7 -12 02 03   0.03552 1.0367   165.1    14.4    19.6
2019 09 29    00 08 50.9 -08 38 10   0.03884 1.0402   168.9    10.6    19.7
2019 09 30    00 21 50.3 -05 45 16   0.04245 1.0438   171.7     7.9    19.8
...
2019 10 06    01 06 33.8 +04 27 41   0.06767 1.0674   174.6     5.1    20.7
...
2019 10 14    01 30 05.6 +09 50 28   0.1064  1.1037   175.6     4.0    21.7
...
2019 10 29    01 45 36.5 +13 16 18   0.1910  1.1836   173.9     5.2    23.2

A. U. Tomatic                (C) Copyright 2019 MPC           M.P.E.C. 2019-S160




More information about the Iaude mailing list